Home   Weather   Al Jizah   Past weeks

Flag for Egypt Past Weather in Al Jizah, Egypt — Yesterday and Last 2 Weeks

Now
54 °F

Passing clouds.


Feels Like: 53 °F
Forecast: 46 / 66 °F
Wind: 5 mph from Northeast

Location: Cairo Airport

Current Time: Jan 21, 2017 at 2:33:48 am

Latest Report: Jan 21, 2017 at 2:00 am


Visibility: N/A

Pressure: 30.15 "Hg

Humidity: 82%

Dew Point: 48 °F

Location of Al JizahLocation

Past Weather in Al Jizah — Graph

°F

Al Jizah Temperature Yesterday

Maximum temperature yesterday: 68 °F (at 2:30 pm)
Minimum temperature yesterday: 52 °F (at 3:00 am)
Average temperature yesterday: 58 °F

High & Low Weather Summary for the Past Weeks

 TemperatureHumidityPressure
High68 °F (Jan 6, 1:30 pm)100% (Jan 15, 2:30 am)30.24 "Hg (Jan 15, 2:30 am)
Low46 °F (Jan 6, 4:00 am)22% (Jan 11, 2:30 pm)29.86 "Hg (Jan 14, 12:30 pm)
Average57 °F61%30.08 "Hg
* Reported Jan 6 1:00 am — Jan 21 1:30 am, Al Jizah, Weather by CustomWeather, © 2017

Note: Actual official high and low records may vary slightly from our data, if they occured in-between our weather recording intervals... More about our weather records

Advertising

Al Jizah Weather History for the Previous 24 Hours

Scroll right to see more
 ConditionsComfort  
Time TempWeatherWind HumidityBarometerVisibility
1:30 am
Sat, Jan 21
54 °FPassing clouds.7 mph82%30.15 "HgN/A
1:00 am54 °FCool.7 mph82%30.15 "HgN/A
12:00 am54 °FPassing clouds.8 mph82%30.15 "HgN/A
11:30 pm
Fri, Jan 20
55 °FPassing clouds.8 mph77%30.15 "HgN/A
11:00 pm55 °FPassing clouds.5 mph77%30.18 "HgN/A
10:30 pm57 °FClear.9 mph72%30.18 "Hg10 mi
10:00 pm57 °FClear.9 mph72%30.18 "Hg10 mi
9:30 pm59 °FClear.12 mph68%30.15 "Hg10 mi
9:00 pm59 °FClear.12 mph63%30.15 "Hg10 mi
8:00 pm61 °FClear.12 mph63%30.15 "Hg10 mi
7:30 pm61 °FClear.17 mph63%30.15 "Hg10 mi
7:00 pm61 °FClear.17 mph59%30.15 "Hg10 mi
6:30 pm63 °FClear.15 mph56%30.15 "Hg10 mi
6:00 pm63 °FClear.15 mph56%30.12 "Hg10 mi
5:30 pm63 °FClear.15 mph52%30.12 "Hg10 mi
5:00 pm64 °FSunny.16 mph56%30.12 "Hg10 mi
4:30 pm64 °FSunny.16 mph52%30.12 "Hg10 mi
4:00 pm66 °FSunny.18 mph52%30.12 "Hg10 mi
3:30 pm66 °FSunny.17 mph49%30.12 "Hg10 mi
3:00 pm66 °FSunny.17 mph49%30.12 "Hg10 mi
2:30 pm68 °FSunny.20 mph46%30.12 "Hg10 mi
2:00 pm66 °FSunny.14 mph49%30.12 "Hg10 mi
1:30 pm66 °FSunny.20 mph49%30.12 "Hg10 mi
1:00 pm66 °FSunny.22 mph49%30.12 "Hg10 mi
12:30 pm64 °FSunny.22 mph56%30.15 "Hg10 mi
12:00 pm64 °FSunny.22 mph56%30.15 "Hg10 mi
11:30 am63 °FSunny.23 mph59%30.18 "Hg10 mi
11:00 am63 °FSunny.15 mph64%30.18 "Hg10 mi
10:30 am61 °FSunny.20 mph68%30.21 "Hg10 mi
10:00 am59 °FClear.20 mph72%30.21 "Hg4 mi
9:30 am59 °FClear.20 mph72%30.21 "Hg4 mi
9:00 am55 °FFog.9 mph88%30.18 "Hg2 mi
8:30 am54 °FFog.6 mph88%30.18 "Hg2 mi
8:00 am52 °FFog.8 mph88%30.18 "Hg2 mi
7:30 am52 °FFog.6 mph88%30.18 "Hg2 mi
6:30 am52 °FFog.7 mph88%30.18 "Hg2 mi
6:00 am52 °FClear.8 mph88%30.15 "Hg4 mi
5:30 am52 °FClear.5 mph88%30.18 "Hg4 mi
5:00 am52 °FClear.5 mph88%30.15 "Hg4 mi
4:30 am52 °FClear.8 mph88%30.15 "Hg4 mi
4:00 am52 °FClear.8 mph88%30.15 "Hg4 mi
3:30 am52 °FClear.8 mph88%30.18 "Hg4 mi
3:00 am52 °FClear.8 mph88%30.18 "Hg4 mi
2:30 am54 °FClear.8 mph82%30.18 "Hg4 mi
2:00 am54 °FClear.7 mph82%30.18 "Hg4 mi
Weather by CustomWeather, © 2017

See weather overviewHow to use our weather pages